Theta_e
306 300 298 301 303 303 302 301 300 303 306 304 303 303 305 308 309 308 310 311 313 315 318 323 328 328 327 332 340 343 353 366 363 359 356 355 354 355 354 354 356 357 360 357
303 298 303 305 304 302 301 299 299 303 305 304 303 301 305 307 308 309 310 312 313 315 316 319 326 328 330 333 336 341 345 355 360 359 359 356 355 354 355 355 354 357 357 357
299 302 305 303 302 300 300 298 299 299 302 304 302 299 302 306 309 310 311 313 314 314 315 319 320 328 330 330 337 336 342 346 354 357 357 357 357 355 351 352 354 354 355 356
302 306 303 301 299 300 296 302 300 299 298 293 302 291 301 304 305 308 309 311 312 314 317 318 322 327 327 328 330 339 340 340 344 351 348 348 350 347 348 351 351 354 355 352
299 301 300 299 300 302 298 302 301 300 297 297 297 293 298 304 302 306 309 311 312 314 315 315 317 321 324 328 331 335 340 343 345 348 350 343 343 343 348 350 351 357 353 353
301 306 304 302 303 303 303 301 300 300 297 291 296 295 295 299 304 306 309 311 312 312 314 317 319 322 324 326 328 336 338 342 344 344 345 345 344 341 343 343 344 346 345 351
299 300 303 304 300 303 301 297 290 289 289 288 298 295 298 305 307 308 309 310 312 314 314 315 317 317 323 325 329 327 332 333 337 339 340 341 343 345 341 341 342 343 342 346
294 293 301 304 301 297 298 298 290 285 287 291 300 295 299 309 311 311 311 312 313 313 314 315 316 318 317 323 326 327 329 330 331 332 336 339 340 335 336 339 340 338 340 343
295 295 304 305 306 303 298 294 300 293 295 291 295 300 306 309 309 309 309 310 311 314 314 313 314 316 319 323 327 329 329 328 330 332 335 339 337 337 336 339 340 338 343 342
301 294 303 304 306 306 301 303 293 294 286 285 292 295 296 304 304 307 308 309 311 314 313 313 314 317 318 319 327 329 328 325 323 330 333 330 337 334 336 334 337 339 342 342
303 299 298 302 299 299 299 297 298 297 294 288 288 293 304 304 307 308 308 310 311 311 311 311 311 313 314 315 316 325 324 322 322 325 320 328 330 331 330 331 331 332 336 340
302 299 293 296 303 305 303 300 299 293 291 295 294 293 307 307 307 308 307 310 311 311 310 310 310 312 314 315 316 318 322 319 320 321 322 321 329 329 329 329 330 331 328 330
302 297 290 292 298 301 298 300 301 301 301 293 290 292 306 306 306 307 307 309 310 309 309 309 311 310 311 314 314 315 316 316 318 319 317 321 321 324 326 326 326 328 324 324
302 297 293 288 293 297 293 295 297 297 292 292 294 295 301 303 303 305 307 308 308 308 309 309 309 309 311 312 313 313 314 315 315 316 316 317 317 323 324 324 323 322 321 320
300 292 294 294 296 296 295 295 296 294 296 291 295 295 300 302 302 304 308 307 306 306 307 307 308 310 312 313 314 313 313 313 314 314 314 315 317 317 321 320 320 321 319 319
300 290 293 291 294 295 293 295 296 295 296 296 295 295 302 304 304 304 305 305 305 305 306 308 309 310 311 311 313 314 313 313 315 314 313 313 314 315 315 319 319 320 319 318
293 292 290 286 293 293 290 294 295 296 297 296 292 297 301 301 303 304 304 304 304 305 306 306 308 310 312 312 313 312 313 313 312 312 312 312 312 312 313 313 318 318 318 316
292 290 289 287 291 282 294 301 299 297 297 299 299 300 301 303 304 304 304 303 304 305 306 307 307 309 310 311 312 313 311 310 310 309 308 309 310 310 311 312 312 316 318 316
295 291 288 286 286 291 294 297 297 294 295 301 300 300 301 302 302 301 305 306 306 306 306 307 308 309 310 310 311 310 309 308 308 307 307 306 307 305 305 307 312 313 316 316
296 295 289 289 284 282 294 299 302 300 289 301 301 300 299 300 293 297 305 305 304 306 306 306 306 308 308 310 310 309 307 306 305 305 305 306 305 305 304 304 305 310 311 314
290 289 285 286 285 290 299 301 302 288 292 302 302 301 300 297 299 303 304 304 305 305 306 306 307 307 308 309 309 306 305 304 305 305 305 305 305 304 305 304 303 304 308 309
290 289 288 290 286 284 301 300 293 298 302 302 301 300 299 300 300 301 302 303 304 304 304 304 305 305 306 307 306 304 304 306 305 304 302 303 303 302 302 303 302 303 304 304
290 293 289 290 292 301 303 302 303 303 301 301 301 301 301 300 299 300 301 302 303 303 303 305 303 303 304 304 303 301 302 303 302 301 301 302 301 300 301 300 300 301 301 300
295 300 294 294 298 299 300 304 303 303 302 303 303 302 301 299 299 299 301 301 301 303 301 302 300 299 298 299 299 298 298 299 299 298 298 299 298 299 299 299 299 299 299 299
295 297 295 295 298 300 300 301 301 302 303 302 302 300 300 299 299 299 299 300 299 299 299 298 296 295 295 296 296 296 296 296 295 296 296 297 297 297 297 298 299 298 300 300
298 296 293 292 299 299 298 301 302 301 300 299 299 299 299 299 299 298 296 298 298 295 295 294 293 292 292 293 294 295 296 295 295 294 294 294 295 296 296 296 297 296 295 295
Wind_Speed
14 12 15 18 18 18 20 18 15 15 18 18 15 15 14 15 13 13 14 13 12 11 9 6 4 5 7 5 2 4 4 2 4 5 8 8 9 9 9 10 11 9 12 14
13 15 17 18 18 19 20 20 14 16 14 8 8 12 14 15 18 15 15 13 13 12 11 9 5 6 6 6 5 3 3 4 3 4 4 6 9 10 9 10 12 9 12 14
16 19 20 16 15 15 11 14 13 18 16 15 16 17 16 20 18 17 15 14 14 15 12 10 11 6 7 4 3 5 6 5 3 5 4 5 6 6 7 9 10 13 13 13
15 19 12 9 13 15 15 16 17 17 15 13 12 14 17 21 20 19 17 13 12 14 8 7 5 4 5 2 5 1 3 4 3 5 6 8 6 8 9 9 8 11 16 17
15 16 13 16 16 15 16 16 16 16 13 16 19 14 15 16 14 16 17 17 14 11 13 13 13 9 5 5 3 2 2 1 2 2 4 6 8 8 8 9 10 6 12 18
17 20 14 9 13 14 13 15 15 13 11 15 18 18 16 17 18 18 16 17 12 11 10 6 9 8 4 4 6 5 5 3 2 3 5 6 8 9 9 9 9 8 9 11
16 20 14 12 11 13 15 13 11 12 14 14 20 18 14 16 19 19 11 10 7 10 9 6 7 5 5 3 3 6 8 7 7 5 5 6 6 7 9 11 9 10 12 10
12 13 15 14 16 13 13 12 13 17 14 15 14 16 4 13 6 7 7 14 12 9 7 7 6 5 5 4 4 2 4 6 7 8 7 6 7 6 7 8 9 9 11 13
14 20 15 15 18 15 17 17 15 16 18 17 17 23 12 7 12 11 12 10 9 10 6 2 2 2 2 5 4 4 5 7 5 7 6 4 7 8 8 9 8 9 10 12
8 10 8 13 11 18 16 9 9 9 17 22 15 18 10 10 5 12 8 1 9 9 7 2 5 7 8 8 4 4 5 8 3 6 4 6 3 7 8 9 11 11 11 13
9 7 10 16 15 15 13 13 12 12 13 4 6 6 8 9 13 7 2 3 6 2 4 5 8 8 9 12 9 3 5 8 9 5 8 10 8 7 9 8 9 9 10 11
6 6 10 17 18 15 17 20 18 10 14 12 13 14 12 1 10 12 11 7 5 9 7 8 8 7 10 10 10 6 4 4 7 9 6 9 4 4 5 6 7 8 10 12
4 4 8 11 15 22 15 13 14 12 18 19 14 9 10 12 14 11 14 13 12 11 9 8 8 7 9 9 9 10 10 8 7 5 7 8 6 8 5 7 8 7 9 12
2 8 14 12 17 9 8 11 16 9 6 9 17 19 15 7 6 8 12 16 15 12 10 7 8 7 9 9 10 10 10 10 9 8 10 10 9 8 8 8 11 9 5 5
3 9 15 19 23 23 25 19 19 19 15 12 14 17 14 12 12 18 18 15 13 10 8 7 9 11 10 8 7 9 10 9 11 9 10 10 10 12 9 9 11 12 10 7
4 6 13 18 17 21 23 22 20 21 21 23 22 23 17 14 11 6 4 7 9 7 10 13 15 13 8 7 7 8 8 9 11 11 12 11 12 13 13 10 8 9 10 9
2 4 5 10 15 15 15 17 19 18 20 15 17 16 10 5 3 5 8 11 13 12 11 14 10 10 9 9 6 7 9 9 11 11 14 15 14 15 14 14 9 9 10 11
5 6 3 6 10 9 6 8 7 6 6 6 7 9 6 7 3 8 8 13 13 11 12 13 13 13 13 13 10 8 10 11 13 13 14 15 15 15 16 13 14 9 10 11
11 7 4 4 7 14 14 4 4 5 7 8 7 9 11 13 12 10 9 12 12 13 13 12 13 14 15 15 13 12 10 11 12 13 15 15 15 15 14 20 12 10 10 11
17 14 8 3 4 4 4 7 6 8 7 9 10 7 8 13 11 10 17 16 16 16 13 13 15 16 17 15 11 10 12 12 15 14 14 13 13 15 16 15 14 14 7 11
3 6 12 9 7 8 3 3 2 7 4 8 10 11 12 11 11 15 16 17 16 16 16 17 17 17 16 14 12 12 11 13 13 14 14 15 15 14 16 13 11 13 13 11
6 3 5 6 5 7 10 5 3 2 4 8 9 11 14 15 17 17 18 17 17 17 19 21 19 16 15 12 11 13 14 13 12 13 15 17 14 12 12 16 12 12 11 11
3 3 1 3 4 0 4 11 1 4 7 8 10 12 13 16 18 20 17 18 17 19 19 18 16 15 14 15 15 17 17 16 16 16 14 14 15 13 13 13 14 11 13 11
2 7 5 8 2 2 2 12 8 14 14 15 14 15 17 18 20 21 18 17 17 17 16 17 19 19 19 18 19 18 17 17 18 15 15 13 15 15 14 12 13 12 13 13
8 9 10 13 6 5 8 8 13 11 11 14 17 17 18 19 19 20 18 17 17 17 18 18 20 20 20 19 17 16 15 15 15 15 15 15 12 14 14 13 12 12 14 12
3 4 4 5 7 6 12 15 14 15 15 16 16 18 18 19 19 20 17 17 18 19 21 20 19 20 20 19 18 17 16 16 16 14 12 11 10 10 9 10 10 16 20 16
Wind_Direction
204 220 211 221 227 241 260 242 280 224 243 198 216 249 253 240 213 214 226 216 253 244 231 219 203 148 98 95 49 326 265 238 201 185 185 202 222 216 225 233 219 219 188 196
232 227 238 228 238 227 250 273 271 289 300 278 235 239 249 257 266 227 223 216 218 233 236 228 210 158 153 154 144 167 273 280 217 217 227 222 209 225 220 219 229 222 206 199
232 231 208 249 246 249 263 276 262 262 273 256 253 256 264 261 246 245 235 232 211 228 220 199 219 204 172 150 155 189 186 176 254 272 251 241 260 266 234 218 212 213 214 212
253 245 263 226 258 272 239 245 247 268 269 262 235 253 242 229 229 233 235 217 229 230 225 241 218 233 149 170 237 299 133 148 214 240 273 274 236 241 248 250 224 209 211 212
263 242 253 263 250 247 250 253 260 240 245 267 262 268 272 287 268 222 217 212 208 224 224 212 196 189 119 50 358 210 256 131 145 255 312 301 285 269 258 250 248 239 214 207
277 283 312 297 274 234 267 253 264 271 264 256 253 257 259 259 249 227 225 196 190 218 211 132 84 71 40 10 10 37 40 2 15 330 264 258 270 281 285 289 303 274 253 215
264 268 252 264 272 273 225 241 253 244 237 248 243 242 243 250 247 242 172 168 142 93 76 66 70 56 40 35 7 3 22 356 339 322 305 285 273 262 263 280 277 274 278 272
268 267 253 217 237 254 264 228 242 252 258 266 266 249 305 351 3 108 94 103 106 106 86 62 44 8 343 332 24 306 309 306 336 307 302 317 303 286 283 255 249 260 267 273
285 255 258 270 284 238 246 263 282 294 298 290 285 281 252 257 225 211 184 160 147 125 114 117 261 315 316 307 311 303 302 267 228 284 272 268 284 279 274 280 290 286 284 269
278 311 307 292 283 271 264 253 239 261 265 267 265 268 284 27 56 346 344 245 127 139 146 211 334 341 330 306 282 276 334 338 303 271 303 296 322 325 321 338 299 264 272 276
286 269 274 297 284 264 266 253 249 241 258 254 285 283 22 3 12 9 14 317 82 22 289 341 341 318 301 295 300 274 19 1 338 35 4 348 10 358 344 322 330 332 322 286
22 315 280 279 280 262 249 266 256 242 254 256 265 272 57 11 311 11 357 294 332 310 312 314 292 306 343 350 349 331 13 346 344 335 345 323 334 331 327 316 322 333 330 330
31 236 287 276 247 233 252 308 289 265 244 241 243 243 109 36 341 352 330 309 306 324 308 291 307 324 316 328 336 323 336 315 303 323 319 311 317 316 328 316 336 347 8 344
342 266 259 264 285 294 245 283 295 276 248 269 262 283 278 70 275 307 290 287 286 276 286 322 334 304 305 302 297 307 311 312 313 317 321 309 307 275 274 288 308 310 320 344
261 268 275 272 273 273 278 267 250 248 252 248 269 272 267 269 193 234 234 237 257 284 309 315 294 288 281 252 244 260 272 282 287 290 292 290 295 292 254 259 270 282 295 306
163 278 285 281 269 259 261 263 266 265 259 259 268 272 289 283 280 312 309 279 270 275 269 272 259 254 295 300 257 260 272 282 290 291 282 279 292 284 285 259 240 258 277 284
211 291 296 269 264 266 258 253 255 259 255 254 263 277 274 247 60 276 285 285 289 291 288 292 307 337 322 311 321 301 299 316 296 279 274 281 275 275 273 278 245 233 248 262
211 225 250 273 290 257 285 317 261 286 301 319 277 312 104 270 231 248 298 284 285 323 341 333 321 312 299 288 280 298 300 296 299 304 305 306 300 286 279 272 282 236 220 232
196 231 267 261 275 289 280 200 35 36 313 23 32 35 340 333 322 290 27 5 338 323 315 313 313 309 308 304 291 277 274 278 275 274 279 279 293 299 312 314 259 271 241 215
194 215 236 293 281 284 89 66 1 324 259 31 360 351 321 327 307 304 352 336 323 316 313 314 305 297 285 284 299 286 271 264 266 271 275 284 287 289 290 287 323 304 278 287
195 211 219 237 243 260 122 289 307 243 30 340 318 326 328 318 316 320 317 313 314 308 312 313 300 284 281 278 276 283 289 281 272 276 281 275 268 277 281 281 279 285 303 279
193 222 214 225 237 247 359 307 336 11 308 302 326 331 322 316 310 308 309 312 309 313 312 305 293 300 306 314 326 306 298 303 298 282 280 276 275 267 269 272 273 273 269 276
277 257 309 266 310 224 306 300 305 300 287 334 329 329 319 315 313 313 307 309 317 312 295 292 311 331 329 327 315 302 300 298 288 276 264 271 274 265 255 257 267 264 250 256
281 210 227 230 158 272 198 277 354 341 357 354 344 340 331 318 314 312 319 314 298 299 322 341 334 322 313 306 302 298 298 296 285 274 268 261 258 256 251 255 250 247 255 254
291 264 308 291 332 309 89 340 352 335 332 338 335 328 325 318 314 314 302 313 325 334 335 329 316 305 301 300 299 295 291 287 286 283 278 265 261 259 254 248 248 247 246 244
6 293 342 325 359 335 332 352 336 341 339 331 340 334 320 312 313 330 327 333 339 329 316 309 308 302 301 301 301 293 286 278 276 271 271 267 266 266 267 268 261 243 243 243